| time (UTC) | temp F | wind direction | speed MPH | gust MPH | rain 1hr in | rain 24hr in | rain mn in | humidity % | barometer mb |
| 20260507114640 | 60 | 0 | 0.0 | 3.0 | 0.00 | 0.00 | 0.00 | 85 | 1015.9 |
| 20260507113100 | 60 | 32 | 0.0 | 2.0 | 0.00 | 0.00 | 0.00 | 86 | 1015.3 |
| 20260507111604 | 60 | 13 | 0.0 | 2.0 | 0.00 | 0.00 | 0.00 | 86 | 1014.8 |
| 20260507110055 | 60 | 0 | 0.0 | 3.0 | 0.00 | 0.00 | 0.00 | 86 | 1014.7 |
| 20260507104554 | 61 | 27 | 1.0 | 2.0 | 0.00 | 0.00 | 0.00 | 87 | 1014.6 |
| 20260507103054 | 61 | 30 | 0.0 | 3.0 | 0.00 | 0.00 | 0.00 | 87 | 1014.6 |
| 20260507101603 | 61 | 0 | 0.0 | 3.0 | 0.00 | 0.00 | 0.00 | 88 | 1014.7 |
| 20260507100057 | 61 | 0 | 0.0 | 2.0 | 0.00 | 0.00 | 0.00 | 88 | 1014.0 |
| 20260507094604 | 61 | 0 | 0.0 | 1.0 | 0.00 | 0.00 | 0.00 | 88 | 1014.0 |
| 20260507093054 | 61 | 0 | 0.0 | 3.0 | 0.00 | 0.00 | 0.00 | 88 | 1013.8 |
| 20260507091552 | 61 | 0 | 0.0 | 3.0 | 0.00 | 0.00 | 0.00 | 88 | 1013.5 |
| 20260507090100 | 61 | 0 | 0.0 | 2.0 | 0.00 | 0.00 | 0.00 | 88 | 1012.9 |
| 20260507084558 | 61 | 56 | 0.0 | 3.0 | 0.00 | 0.00 | 0.00 | 87 | 1012.9 |
| 20260507083053 | 62 | 0 | 1.0 | 5.0 | 0.00 | 0.00 | 0.00 | 87 | 1013.0 |
| 20260507081553 | 62 | 0 | 0.0 | 2.0 | 0.00 | 0.00 | 0.00 | 87 | 1013.9 |
| 20260507080119 | 61 | 0 | 0.0 | 2.0 | 0.00 | 0.00 | 0.00 | 87 | 1013.5 |
| 20260507074558 | 61 | 59 | 1.0 | 5.0 | 0.00 | 0.00 | 0.00 | 86 | 1012.8 |
| 20260507073106 | 62 | 61 | 1.0 | 4.0 | 0.00 | 0.00 | 0.00 | 86 | 1013.6 |
| 20260507071555 | 62 | 59 | 1.0 | 3.0 | 0.00 | 0.00 | 0.00 | 85 | 1013.3 |
| 20260507070055 | 62 | 61 | 0.0 | 4.0 | 0.00 | 0.00 | 0.00 | 85 | 1014.0 |
| 20260507064600 | 62 | 0 | 0.0 | 3.0 | 0.00 | 0.00 | 0.00 | 85 | 1013.7 |
| 20260507063102 | 62 | 57 | 1.0 | 4.0 | 0.00 | 0.00 | 0.00 | 85 | 1013.9 |
| 20260507061553 | 62 | 0 | 0.0 | 4.0 | 0.00 | 0.00 | 0.00 | 84 | 1014.3 |
| 20260507060053 | 62 | 42 | 0.0 | 5.0 | 0.00 | 0.00 | 0.00 | 84 | 1013.6 |
| 20260507054552 | 62 | 63 | 0.0 | 2.0 | 0.00 | 0.00 | 0.00 | 84 | 1013.7 |
| 20260507053053 | 62 | 0 | 0.0 | 2.0 | 0.00 | 0.00 | 0.00 | 83 | 1014.0 |
| 20260507051553 | 62 | 314 | 0.0 | 2.0 | 0.00 | 0.00 | 0.00 | 83 | 1013.9 |
| 20260507050054 | 63 | 5 | 0.0 | 2.0 | 0.00 | 0.00 | 0.00 | 83 | 1013.7 |
| 20260507044555 | 63 | 350 | 1.0 | 4.0 | 0.00 | 0.00 | 0.00 | 82 | 1013.9 |
| 20260507043055 | 63 | 355 | 0.0 | 2.0 | 0.00 | 0.00 | 0.00 | 82 | 1013.8 |
| 20260507041554 | 63 | 0 | 0.0 | 4.0 | 0.00 | 0.00 | 0.00 | 82 | 1014.1 |
| 20260507034556 | 63 | 0 | 0.0 | 4.0 | 0.00 | 0.00 | 0.00 | 81 | 1013.5 |
| 20260507033101 | 63 | 0 | 0.0 | 2.0 | 0.00 | 0.00 | 0.00 | 81 | 1013.5 |
| 20260507031553 | 63 | 0 | 0.0 | 3.0 | 0.00 | 0.00 | 0.00 | 81 | 1013.2 |
| 20260507030055 | 63 | 0 | 0.0 | 3.0 | 0.00 | 0.00 | 0.00 | 81 | 1013.3 |
| 20260507024606 | 64 | 26 | 0.0 | 3.0 | 0.00 | 0.00 | 0.00 | 81 | 1012.7 |
| 20260507023053 | 64 | 0 | 0.0 | 3.0 | 0.00 | 0.00 | 0.00 | 81 | 1012.5 |
| 20260507021559 | 64 | 0 | 0.0 | 4.0 | 0.00 | 0.00 | 0.00 | 81 | 1012.5 |
| 20260507020109 | 65 | 0 | 0.0 | 3.0 | 0.00 | 0.00 | 0.00 | 80 | 1012.0 |
| 20260507014601 | 65 | 0 | 0.0 | 2.0 | 0.00 | 0.00 | 0.00 | 80 | 1011.8 |
| 20260507013057 | 66 | 0 | 0.0 | 3.0 | 0.00 | 0.00 | 0.00 | 80 | 1011.9 |
| 20260507011558 | 66 | 60 | 0.0 | 2.0 | 0.00 | 0.00 | 0.00 | 79 | 1011.4 |
| 20260507004605 | 67 | 0 | 0.0 | 4.0 | 0.00 | 0.00 | 0.00 | 77 | 1010.8 |
| 20260507003057 | 68 | 5 | 0.0 | 3.0 | 0.00 | 0.00 | 0.00 | 77 | 1010.5 |
| 20260507001555 | 69 | 95 | 0.0 | 2.0 | 0.00 | 0.00 | 0.00 | 76 | 1010.5 |
| 20260507000056 | 69 | 0 | 0.0 | 2.0 | 0.00 | 0.00 | 0.00 | 75 | 1010.2 |
| 20260506234553 | 70 | 75 | 0.0 | 3.0 | 0.00 | 0.00 | 0.00 | 75 | 1009.9 |
| 20260506233110 | 70 | 5 | 1.0 | 3.0 | 0.00 | 0.00 | 0.00 | 75 | 1009.9 |
| 20260506231600 | 71 | 339 | 0.0 | 3.0 | 0.00 | 0.00 | 0.00 | 74 | 1009.7 |
| 20260506230056 | 71 | 334 | 1.0 | 4.0 | 0.00 | 0.00 | 0.00 | 75 | 1009.8 |
| 20260506224555 | 72 | 38 | 0.0 | 3.0 | 0.00 | 0.00 | 0.00 | 74 | 1009.7 |
| 20260506223055 | 72 | 340 | 0.0 | 4.0 | 0.00 | 0.00 | 0.00 | 75 | 1009.7 |
| 20260506221558 | 72 | 311 | 0.0 | 4.0 | 0.00 | 0.00 | 0.00 | 75 | 1009.6 |
| 20260506220056 | 73 | 0 | 1.0 | 5.0 | 0.00 | 0.00 | 0.00 | 76 | 1009.4 |
| 20260506214556 | 73 | 355 | 0.0 | 3.0 | 0.00 | 0.00 | 0.00 | 75 | 1009.1 |
| 20260506213110 | 75 | 0 | 0.0 | 4.0 | 0.00 | 0.00 | 0.00 | 74 | 1009.2 |
| 20260506211555 | 76 | 313 | 0.0 | 3.0 | 0.00 | 0.00 | 0.00 | 75 | 1009.2 |
| 20260506210056 | 77 | 321 | 0.0 | 3.0 | 0.00 | 0.00 | 0.00 | 78 | 1008.9 |
| 20260506204556 | 78 | 337 | 0.0 | 1.0 | 0.00 | 0.00 | 0.00 | 77 | 1008.8 |
| 20260506203053 | 79 | 0 | 0.0 | 2.0 | 0.00 | 0.00 | 0.00 | 77 | 1009.1 |
| 20260506201554 | 78 | 0 | 0.0 | 2.0 | 0.00 | 0.00 | 0.00 | 78 | 1009.1 |
| 20260506200053 | 78 | 0 | 0.0 | 3.0 | 0.00 | 0.00 | 0.00 | 79 | 1009.0 |
| 20260506194553 | 77 | 69 | 0.0 | 2.0 | 0.00 | 0.00 | 0.00 | 79 | 1009.4 |
| 20260506193057 | 76 | 0 | 0.0 | 2.0 | 0.00 | 0.00 | 0.00 | 79 | 1009.2 |
| 20260506191553 | 75 | 0 | 0.0 | 4.0 | 0.00 | 0.00 | 0.00 | 79 | 1009.2 |
| 20260506190053 | 74 | 0 | 0.0 | 2.0 | 0.00 | 0.00 | 0.00 | 81 | 1009.1 |
| 20260506184555 | 72 | 0 | 0.0 | 4.0 | 0.00 | 0.00 | 0.00 | 82 | 1009.5 |
| 20260506183100 | 70 | 0 | 0.0 | 3.0 | 0.00 | 0.00 | 0.00 | 83 | 1009.8 |
| 20260506181621 | 68 | 0 | 1.0 | 5.0 | 0.00 | 0.00 | 0.00 | 84 | 1010.0 |
| 20260506180054 | 67 | 71 | 1.0 | 4.0 | 0.00 | 0.00 | 0.00 | 86 | 1010.1 |
| 20260506174552 | 66 | 67 | 1.0 | 3.0 | 0.00 | 0.00 | 0.00 | 86 | 1010.6 |
| 20260506173100 | 68 | 355 | 0.0 | 3.0 | 0.00 | 0.00 | 0.00 | 84 | 1011.0 |
| 20260506171552 | 71 | 13 | 0.0 | 3.0 | 0.00 | 0.00 | 0.00 | 82 | 1011.2 |
| 20260506170055 | 75 | 0 | 1.0 | 5.0 | 0.00 | 0.00 | 0.00 | 79 | 1011.2 |
| 20260506164600 | 78 | 0 | 0.0 | 1.0 | 0.00 | 0.00 | 0.00 | 87 | 1011.1 |
| 20260506163103 | 78 | 0 | 0.0 | 1.0 | 0.00 | 0.00 | 0.00 | 87 | 1011.0 |
| 20260506161557 | 78 | 0 | 0.0 | 1.0 | 0.00 | 0.00 | 0.00 | 87 | 1010.8 |
| 20260506160108 | 78 | 0 | 0.0 | 1.0 | 0.00 | 0.00 | 0.00 | 89 | 1010.3 |
| 20260506154601 | 77 | 0 | 0.0 | 1.0 | 0.00 | 0.00 | 0.00 | 89 | 1009.7 |
| 20260506153110 | 77 | 0 | 0.0 | 1.0 | 0.00 | 0.00 | 0.00 | 90 | 1009.7 |
| 20260506151555 | 77 | 0 | 0.0 | 2.0 | 0.00 | 0.00 | 0.00 | 90 | 1009.7 |
| 20260506150059 | 77 | 0 | 0.0 | 2.0 | 0.00 | 0.00 | 0.00 | 90 | 1009.8 |
| 20260506144558 | 76 | 0 | 0.0 | 1.0 | 0.00 | 0.00 | 0.00 | 91 | 1009.8 |
| 20260506143057 | 76 | 0 | 0.0 | 3.0 | 0.00 | 0.00 | 0.00 | 91 | 1009.8 |
| 20260506141555 | 76 | 0 | 0.0 | 3.0 | 0.00 | 0.00 | 0.00 | 92 | 1009.2 |
| 20260506140054 | 75 | 0 | 0.0 | 2.0 | 0.00 | 0.00 | 0.00 | 92 | 1009.1 |
| 20260506134553 | 75 | 82 | 0.0 | 2.0 | 0.00 | 0.00 | 0.00 | 92 | 1008.9 |
| 20260506133053 | 75 | 0 | 0.0 | 1.0 | 0.00 | 0.00 | 0.00 | 92 | 1009.0 |
| 20260506131556 | 75 | 0 | 0.0 | 1.0 | 0.00 | 0.00 | 0.00 | 92 | 1009.1 |
| 20260506130056 | 75 | 0 | 0.0 | 0.0 | 0.00 | 0.00 | 0.00 | 92 | 1009.2 |
| 20260506124556 | 75 | 0 | 0.0 | 1.0 | 0.00 | 0.00 | 0.00 | 92 | 1008.7 |
| 20260506123055 | 75 | 0 | 0.0 | 0.0 | 0.00 | 0.00 | 0.00 | 92 | 1008.7 |
| 20260506121553 | 75 | 0 | 0.0 | 1.0 | 0.00 | 0.00 | 0.00 | 91 | 1008.9 |
| 20260506120057 | 75 | 0 | 0.0 | 1.0 | 0.00 | 0.00 | 0.00 | 91 | 1008.7 |